Regional Weather Roundup
Issued by NWS

Home | Current Version | Previous Version | Text Only | Print | Product List | Glossary On
Versions: 1 2 3 4 5 6 7 8 9 10 11 12 13 14 15 16 17 18 19 20 21 22 23 24 25 26 27 28 29 30 31 32 33 34 35 36 37 38 39 40 41 42 43 44 45 46 47 48 49 50
000
ASUS43 KDTX 291301
RWRMI
MICHIGAN HOURLY REGIONAL WEATHER ROUNDUP
NATIONAL WEATHER SERVICE DETROIT/PONTIAC MI
900 AM EDT FRI JUL 29 2016

NOTE: "FAIR" INDICATES FEW OR NO CLOUDS BELOW 12,000 FEET WITH NO
SIGNIFICANT WEATHER AND/OR OBSTRUCTION TO VISIBILITY.

MIZ047>049-052>055-059>063-066>070-074>076-081>083-291400-
SOUTHEAST LOWER MICHIGAN

CITY           SKY/WX    TMP DP  RH WIND       PRES   REMARKS
ADRIAN         PTSUNNY   70  64  81 E7        29.97S
ALMA           LGT RAIN  66  65  97 NE3       30.01S
ANN ARBOR      MOSUNNY   71  64  78 N6        29.97R
BAD AXE        CLOUDY    67  62  83 E7        30.01S
CARO           CLOUDY    67  64  87 NE3       29.99S
DETROIT CITY   CLOUDY    74  65  73 NE7       29.96R
DETROIT        PTSUNNY   74  63  68 N8        29.96R
FLINT          CLOUDY    73  62  68 NE10      29.99R
GROSSE ILE     CLOUDY    73  65  76 N3        29.94S
HILLSDALE      MOSUNNY   71  62  73 E6        29.96F
HOWELL         CLOUDY    67  64  87 NE3       29.99R

CITY           SKY/WX    TMP DP  RH WIND       PRES   REMARKS
JACKSON        PTSUNNY   68  64  87 NE8       29.98S
LAMBERTVILLE   SUNNY     74  65  73 CALM      29.96R
LANSING        PTSUNNY   70  61  73 NE9       30.00R
LAPEER         PTSUNNY   69  62  78 NE6       29.99S
MASON          PTSUNNY   68  62  82 NE7       29.99R
MONROE         MOSUNNY   72  67  83 N8        29.94S
PONTIAC        CLOUDY    70  64  81 NE8       29.98R
PORT HOPE        N/A     70  62  76 NE20      30.00S
PORT HURON     CLOUDY    72  64  78 N5        29.97S
TRI CITIES     CLOUDY    72  62  71 E7        30.01R
MIDLAND        RAIN      66  64  95 CALM      30.01R
TROY           CLOUDY    74  63  67 NE8       29.99R
SAGINAW HB     CLOUDY    68  63  83 N5        30.00R
$$
MIZ043>046-050>051-056>058-064>065-071>073-077>080-291400-
SOUTHWEST LOWER MICHIGAN

CITY           SKY/WX    TMP DP  RH WIND       PRES   REMARKS
BATTLE CREEK   LGT RAIN  65  65 100 NE7       29.98S FOG
BENTON HARBOR  SUNNY     73  66  78 E8        29.94R
BIG RAPIDS     CLOUDY    66  65  97 NE6       30.01S
COLDWATER      LGT RAIN  67  64  91 N8        29.97R
FREMONT        FAIR      65  65 100 E9        30.00S
HOLLAND        CLOUDY    67  64  90 E12       29.98S THUNDER
GRAND RAPIDS   PTSUNNY   68  62  81 E12       29.99R
IONIA          LGT RAIN  67  61  81 NE10      29.99R
KALAMAZOO      CLOUDY    68  64  87 NE5       29.96F
LUDINGTON      PTSUNNY   65  63  94 E7        30.00S
MARSHALL       LGT RAIN  67  66  97 NE3       29.97S
MOUNT PLEASANT DRIZZLE   66  64  94 NE5       30.01R
MUSKEGON       LGT RAIN  64  62  93 NE9       29.98S
SOUTH HAVEN    MOSUNNY   68  65  91 E8        29.96R
$$
MIZ016>042-291400-
NORTHERN LOWER MICHIGAN

CITY           SKY/WX    TMP DP  RH WIND       PRES   REMARKS
ALPENA         MOSUNNY   67  58  72 NE9       30.07R
BEAVER ISLAND  SUNNY     68  59  73 E12       30.08R
BELLAIRE       MOSUNNY   66  58  74 CALM      30.05S
CADILLAC       MOSUNNY   63  61  92 NE7       30.04R
CHARLEVOIX     MOSUNNY   68  57  68 E14       30.08S
FRANKFORT      CLOUDY    65  61  86 E5        30.03S
GAYLORD        MOSUNNY   65  55  70 NE7       30.08R
GRAYLING       CLOUDY    67  59  74 NE8       30.07R
HARBOR SPRINGS CLOUDY    66  59  79 E8        30.07R
HOUGHTON LAKE  CLOUDY    64  61  90 NE8       30.06R
MANISTEE       CLOUDY    65  63  93 NE9       30.01S
OSCODA         CLOUDY    71  57  61 NE15      30.04R
PELLSTON       CLOUDY    66  58  75 E5        30.08R
ROGERS CITY    CLOUDY    67  58  72 E6        30.08S
TRAVERSE CITY  CLOUDY    68  62  81 NE3       30.04R
$$
MIZ007>008-015-291400-
EASTERN UPPER MICHIGAN

CITY           SKY/WX    TMP DP  RH WIND       PRES   REMARKS
KINROSS        SUNNY     65  54  67 E9        30.10R
MACKINAC ISLAN MOSUNNY   65  57  73 E7        30.08S
S. S. MARIE    SUNNY     65  54  67 VRB3      30.09S
$$
MIZ004>006-011>014-085-291400-
CENTRAL UPPER MICHIGAN

CITY           SKY/WX    TMP DP  RH WIND       PRES   REMARKS
ESCANABA       SUNNY     66  61  82 NE8       30.05S
MENOMINEE      MOSUNNY  N/A N/A N/A NE6       30.06R
SAWYER-GWINN   SUNNY     63  55  77 E8        30.10R
$$
MIZ001>003-009>011-084-291400-
WESTERN UPPER MICHIGAN

CITY           SKY/WX    TMP DP  RH WIND       PRES   REMARKS
IRON MOUNTAIN  SUNNY     60  54  80 N7        30.08R
HOUGHTON       SUNNY     66  53  63 E7        30.11R
COPPER HARBOR    N/A     65  58  78 CALM      30.10S
IRONWOOD       SUNNY     54  54 100 E3        30.11S
$$

ABBREVIATIONS USED IN REMARKS
   TC - TEMPERATURE IN CELSIUS
  WCI - WIND CHILL INDEX
   HX - HEAT INDEX
  VSB - VISIBILITY





USA.gov is the U.S. government's official web portal to all federal, state and local government web resources and services.